Time,TemperatureF,DewpointF,PressureIn,WindDirection,WindDirectionDegrees,WindSpeedMPH,WindSpeedGustMPH,Humidity,HourlyPrecipIn,Conditions,Clouds,dailyrainin,SolarRadiationWatts/m^2,SoftwareType,DateUTC
2013-02-26 00:07:00,43.8,39.0,29.86,East,90,2.0,19.0,84,0.00,,,0.00,0,weatherlink.com 1.10,2013-02-26 05:07:00,
2013-02-26 00:22:00,44.0,40.0,29.87,South,186,12.0,15.0,85,0.00,,,0.00,0,weatherlink.com 1.10,2013-02-26 05:22:00,
2013-02-26 00:37:00,42.4,39.0,29.86,SSE,168,9.0,12.0,86,0.00,,,0.00,0,weatherlink.com 1.10,2013-02-26 05:37:00,
2013-02-26 00:52:00,42.2,39.0,29.84,SE,129,10.0,15.0,88,0.00,,,0.00,0,weatherlink.com 1.10,2013-02-26 05:52:00,
2013-02-26 01:07:00,43.5,40.0,29.83,SE,125,8.0,18.0,88,0.01,,,0.01,0,weatherlink.com 1.10,2013-02-26 06:07:00,
2013-02-26 01:22:00,44.0,40.0,29.83,SSE,168,8.0,28.0,87,0.01,,,0.01,0,weatherlink.com 1.10,2013-02-26 06:22:00,
2013-02-26 01:37:00,44.3,41.0,29.81,ESE,110,16.0,22.0,87,0.02,,,0.02,0,weatherlink.com 1.10,2013-02-26 06:37:00,
2013-02-26 01:52:00,44.3,41.0,29.80,SSE,148,10.0,24.0,87,0.05,,,0.05,0,weatherlink.com 1.10,2013-02-26 06:52:00,
2013-02-26 02:07:00,44.2,41.0,29.80,SSE,167,10.0,24.0,87,0.08,,,0.09,0,weatherlink.com 1.10,2013-02-26 07:07:00,
2013-02-26 02:22:00,43.4,40.0,29.80,SSW,196,17.0,20.0,89,0.11,,,0.12,0,weatherlink.com 1.10,2013-02-26 07:22:00,
2013-02-26 02:37:00,43.6,41.0,29.79,South,173,22.0,23.0,89,0.12,,,0.15,0,weatherlink.com 1.10,2013-02-26 07:37:00,
2013-02-26 02:52:00,43.7,40.0,29.79,SE,130,12.0,22.0,88,0.16,,,0.21,0,weatherlink.com 1.10,2013-02-26 07:52:00,
2013-02-26 03:08:00,43.8,40.0,29.77,SSW,194,11.0,22.0,87,0.16,,,0.25,0,weatherlink.com 1.10,2013-02-26 08:08:00,
2013-02-26 03:23:00,44.2,41.0,29.78,SE,144,17.0,23.0,87,0.15,,,0.27,0,weatherlink.com 1.10,2013-02-26 08:23:00,
2013-02-26 03:38:00,43.9,40.0,29.77,South,187,7.0,22.0,87,0.15,,,0.31,0,weatherlink.com 1.10,2013-02-26 08:38:00,
2013-02-26 03:53:00,43.7,40.0,29.76,South,171,7.0,22.0,87,0.14,,,0.35,0,weatherlink.com 1.10,2013-02-26 08:53:00,
2013-02-26 04:08:00,43.9,40.0,29.75,South,184,8.0,25.0,87,0.14,,,0.39,0,weatherlink.com 1.10,2013-02-26 09:08:00,
2013-02-26 04:23:00,43.5,40.0,29.75,SSE,154,6.0,15.0,87,0.16,,,0.43,0,weatherlink.com 1.10,2013-02-26 09:23:00,
2013-02-26 04:38:00,43.2,40.0,29.72,South,178,7.0,13.0,89,0.14,,,0.45,0,weatherlink.com 1.10,2013-02-26 09:38:00,
2013-02-26 04:53:00,43.4,40.0,29.68,ESE,115,7.0,11.0,89,0.12,,,0.47,0,weatherlink.com 1.10,2013-02-26 09:53:00,
2013-02-26 05:08:00,44.2,41.0,29.67,South,181,12.0,16.0,87,0.10,,,0.49,0,weatherlink.com 1.10,2013-02-26 10:08:00,
2013-02-26 05:23:00,44.2,41.0,29.68,South,180,13.0,26.0,87,0.10,,,0.53,0,weatherlink.com 1.10,2013-02-26 10:23:00,
2013-02-26 05:38:00,43.4,40.0,29.65,SE,136,12.0,19.0,89,0.18,,,0.63,0,weatherlink.com 1.10,2013-02-26 10:38:00,
2013-02-26 05:53:00,44.4,41.0,29.65,SE,130,12.0,22.0,89,0.24,,,0.71,0,weatherlink.com 1.10,2013-02-26 10:53:00,
2013-02-26 06:08:00,44.6,41.0,29.66,South,179,9.0,23.0,88,0.25,,,0.74,0,weatherlink.com 1.10,2013-02-26 11:08:00,
2013-02-26 06:23:00,45.1,42.0,29.65,SSE,148,13.0,27.0,88,0.28,,,0.81,0,weatherlink.com 1.10,2013-02-26 11:23:00,
2013-02-26 06:38:00,44.9,42.0,29.62,South,184,8.0,23.0,88,0.25,,,0.88,0,weatherlink.com 1.10,2013-02-26 11:38:00,
2013-02-26 06:53:00,45.8,42.0,29.62,SSE,163,3.0,26.0,87,0.22,,,0.93,0,weatherlink.com 1.10,2013-02-26 11:53:00,
2013-02-26 07:23:00,44.5,41.0,29.63,ESE,113,9.0,27.0,88,0.18,,,0.99,5,weatherlink.com 1.10,2013-02-26 12:23:00,
2013-02-26 07:38:00,44.7,41.0,29.61,SSE,162,5.0,27.0,87,0.11,,,1.00,21,weatherlink.com 1.10,2013-02-26 12:38:00,
2013-02-26 07:53:00,44.4,41.0,29.61,SSE,153,9.0,21.0,88,0.10,,,1.03,7,weatherlink.com 1.10,2013-02-26 12:53:00,
2013-02-26 08:08:00,44.3,41.0,29.61,SSE,153,16.0,19.0,88,0.09,,,1.05,25,weatherlink.com 1.10,2013-02-26 13:08:00,
2013-02-26 08:23:00,44.5,41.0,29.60,South,189,11.0,21.0,86,0.06,,,1.05,40,weatherlink.com 1.10,2013-02-26 13:23:00,
2013-02-26 08:38:00,45.1,41.0,29.59,SE,137,6.0,24.0,86,0.05,,,1.05,47,weatherlink.com 1.10,2013-02-26 13:38:00,
2013-02-26 08:53:00,45.6,41.0,29.58,SSE,165,7.0,24.0,85,0.02,,,1.05,109,weatherlink.com 1.10,2013-02-26 13:53:00,
2013-02-26 09:08:00,46.2,42.0,29.57,East,88,15.0,22.0,86,0.00,,,1.05,113,weatherlink.com 1.10,2013-02-26 14:08:00,
2013-02-26 09:23:00,46.4,42.0,29.55,SE,132,12.0,26.0,85,0.00,,,1.05,97,weatherlink.com 1.10,2013-02-26 14:23:00,
2013-02-26 09:38:00,47.3,43.0,29.54,SSE,157,20.0,31.0,84,0.00,,,1.05,227,weatherlink.com 1.10,2013-02-26 14:38:00,
2013-02-26 09:53:00,47.6,43.0,29.53,SSE,163,10.0,25.0,84,0.00,,,1.05,244,weatherlink.com 1.10,2013-02-26 14:53:00,
2013-02-26 10:08:00,46.1,42.0,29.59,SSW,196,19.0,32.0,85,0.00,,,1.05,90,weatherlink.com 1.10,2013-02-26 15:08:00,
2013-02-26 10:23:00,44.8,42.0,29.60,SSE,147,13.0,17.0,88,0.00,,,1.05,144,weatherlink.com 1.10,2013-02-26 15:23:00,
2013-02-26 10:38:00,45.1,42.0,29.59,SE,128,5.0,14.0,89,0.01,,,1.06,146,weatherlink.com 1.10,2013-02-26 15:38:00,
2013-02-26 10:53:00,45.5,42.0,29.58,South,171,8.0,22.0,86,0.02,,,1.07,225,weatherlink.com 1.10,2013-02-26 15:53:00,
2013-02-26 11:08:00,45.9,42.0,29.57,SSE,153,7.0,17.0,86,0.02,,,1.07,151,weatherlink.com 1.10,2013-02-26 16:08:00,
2013-02-26 11:23:00,45.8,42.0,29.57,SSE,167,6.0,24.0,86,0.02,,,1.07,128,weatherlink.com 1.10,2013-02-26 16:23:00,
2013-02-26 11:38:00,45.6,41.0,29.59,SE,132,3.0,17.0,85,0.01,,,1.07,121,weatherlink.com 1.10,2013-02-26 16:38:00,
2013-02-26 11:53:00,45.8,42.0,29.59,ESE,123,10.0,12.0,85,0.00,,,1.07,109,weatherlink.com 1.10,2013-02-26 16:53:00,
2013-02-26 12:08:00,45.6,42.0,29.57,ESE,120,4.0,17.0,87,0.00,,,1.07,206,weatherlink.com 1.10,2013-02-26 17:08:00,
2013-02-26 12:23:00,46.3,42.0,29.56,ESE,113,8.0,15.0,86,0.00,,,1.07,306,weatherlink.com 1.10,2013-02-26 17:23:00,
2013-02-26 12:38:00,46.7,43.0,29.56,SE,127,4.0,18.0,85,0.00,,,1.07,239,weatherlink.com 1.10,2013-02-26 17:38:00,
2013-02-26 12:53:00,46.6,42.0,29.56,South,184,3.0,16.0,85,0.00,,,1.07,174,weatherlink.com 1.10,2013-02-26 17:53:00,
2013-02-26 13:08:00,46.9,43.0,29.54,ESE,119,9.0,13.0,85,0.00,,,1.07,267,weatherlink.com 1.10,2013-02-26 18:08:00,
2013-02-26 13:23:00,47.3,43.0,29.55,West,262,5.0,17.0,84,0.00,,,1.07,146,weatherlink.com 1.10,2013-02-26 18:23:00,
2013-02-26 13:38:00,46.9,42.0,29.55,South,189,2.0,12.0,84,0.00,,,1.07,111,weatherlink.com 1.10,2013-02-26 18:38:00,
2013-02-26 13:54:00,46.6,42.0,29.55,East,92,11.0,14.0,85,0.00,,,1.07,95,weatherlink.com 1.10,2013-02-26 18:54:00,
2013-02-26 14:08:00,46.4,42.0,29.55,ENE,70,0.0,6.0,84,0.00,,,1.07,79,weatherlink.com 1.10,2013-02-26 19:08:00,
2013-02-26 14:23:00,46.7,42.0,29.55,SSE,153,1.0,13.0,84,0.00,,,1.07,79,weatherlink.com 1.10,2013-02-26 19:23:00,
2013-02-26 14:38:00,47.1,43.0,29.57,ESE,104,4.0,8.0,85,0.00,,,1.07,90,weatherlink.com 1.10,2013-02-26 19:38:00,
2013-02-26 14:53:00,47.5,43.0,29.55,East,94,11.0,12.0,85,0.00,,,1.07,90,weatherlink.com 1.10,2013-02-26 19:53:00,
2013-02-26 15:08:00,47.5,43.0,29.56,East,94,5.0,12.0,84,0.00,,,1.07,84,weatherlink.com 1.10,2013-02-26 20:08:00,
2013-02-26 15:23:00,47.7,43.0,29.57,West,278,4.0,10.0,82,0.00,,,1.07,132,weatherlink.com 1.10,2013-02-26 20:23:00,
2013-02-26 15:38:00,49.5,44.0,29.55,ESE,119,8.0,12.0,80,0.00,,,1.07,715,weatherlink.com 1.10,2013-02-26 20:38:00,
2013-02-26 15:54:00,50.0,43.0,29.56,ESE,108,4.0,7.0,77,0.00,,,1.07,84,weatherlink.com 1.10,2013-02-26 20:54:00,
2013-02-26 16:09:00,48.2,42.0,29.55,East,99,6.0,7.0,79,0.00,,,1.07,53,weatherlink.com 1.10,2013-02-26 21:09:00,
2013-02-26 16:24:00,47.7,42.0,29.55,East,94,3.0,4.0,79,0.00,,,1.07,21,weatherlink.com 1.10,2013-02-26 21:24:00,
2013-02-26 16:39:00,47.5,41.0,29.54,East,93,1.0,5.0,79,0.00,,,1.07,23,weatherlink.com 1.10,2013-02-26 21:39:00,
2013-02-26 16:54:00,47.6,41.0,29.56,SW,230,2.0,4.0,79,0.00,,,1.07,14,weatherlink.com 1.10,2013-02-26 21:54:00,
2013-02-26 17:09:00,47.6,42.0,29.57,WSW,240,3.0,6.0,80,0.00,,,1.07,32,weatherlink.com 1.10,2013-02-26 22:09:00,
2013-02-26 17:24:00,47.4,42.0,29.58,WSW,257,3.0,11.0,80,0.00,,,1.07,33,weatherlink.com 1.10,2013-02-26 22:24:00,
2013-02-26 17:39:00,46.8,42.0,29.60,WNW,286,4.0,8.0,82,0.00,,,1.07,18,weatherlink.com 1.10,2013-02-26 22:39:00,
2013-02-26 17:54:00,45.8,41.0,29.61,WSW,238,4.0,12.0,84,0.00,,,1.07,12,weatherlink.com 1.10,2013-02-26 22:54:00,
2013-02-26 18:09:00,45.5,40.0,29.62,WNW,292,3.0,14.0,82,0.00,,,1.07,9,weatherlink.com 1.10,2013-02-26 23:09:00,
2013-02-26 18:24:00,45.5,40.0,29.63,SW,214,5.0,11.0,81,0.00,,,1.07,0,weatherlink.com 1.10,2013-02-26 23:24:00,
2013-02-26 18:39:00,45.4,40.0,29.63,WNW,294,0.0,14.0,80,0.00,,,1.07,0,weatherlink.com 1.10,2013-02-26 23:39:00,
2013-02-26 18:54:00,45.4,40.0,29.64,West,263,6.0,12.0,80,0.00,,,1.07,0,weatherlink.com 1.10,2013-02-26 23:54:00,
2013-02-26 19:09:00,45.3,40.0,29.64,WNW,303,2.0,5.0,80,0.00,,,1.07,0,weatherlink.com 1.10,2013-02-27 00:09:00,
2013-02-26 19:39:00,44.9,38.0,29.65,SW,232,4.0,15.0,77,0.00,,,1.07,0,weatherlink.com 1.10,2013-02-27 00:39:00,
2013-02-26 19:54:00,45.1,38.0,29.65,WSW,242,5.0,13.0,75,0.00,,,1.07,0,weatherlink.com 1.10,2013-02-27 00:54:00,
2013-02-26 20:09:00,44.8,38.0,29.66,West,280,3.0,9.0,77,0.00,,,1.07,0,weatherlink.com 1.10,2013-02-27 01:09:00,
2013-02-26 20:24:00,43.6,36.0,29.67,WNW,286,5.0,9.0,75,0.00,,,1.07,0,weatherlink.com 1.10,2013-02-27 01:24:00,
2013-02-26 20:39:00,42.9,36.0,29.68,SW,219,3.0,12.0,75,0.00,,,1.07,0,weatherlink.com 1.10,2013-02-27 01:39:00,
2013-02-26 20:54:00,42.5,35.0,29.68,NW,306,3.0,11.0,76,0.00,,,1.07,0,weatherlink.com 1.10,2013-02-27 01:54:00,
2013-02-26 21:09:00,42.3,35.0,29.69,NNW,327,5.0,8.0,76,0.00,,,1.07,0,weatherlink.com 1.10,2013-02-27 02:09:00,
2013-02-26 21:24:00,41.9,35.0,29.69,West,281,2.0,11.0,76,0.00,,,1.07,0,weatherlink.com 1.10,2013-02-27 02:24:00,
2013-02-26 21:39:00,41.6,34.0,29.70,West,273,6.0,13.0,75,0.00,,,1.07,0,weatherlink.com 1.10,2013-02-27 02:39:00,
2013-02-26 21:54:00,41.6,34.0,29.70,West,263,13.0,13.0,73,0.00,,,1.07,0,weatherlink.com 1.10,2013-02-27 02:54:00,
2013-02-26 22:09:00,41.6,34.0,29.70,West,281,7.0,8.0,73,0.00,,,1.07,0,weatherlink.com 1.10,2013-02-27 03:09:00,
2013-02-26 22:24:00,41.4,34.0,29.70,NW,321,1.0,8.0,75,0.00,,,1.07,0,weatherlink.com 1.10,2013-02-27 03:24:00,
2013-02-26 22:39:00,40.7,34.0,29.71,WNW,303,2.0,11.0,78,0.00,,,1.07,0,weatherlink.com 1.10,2013-02-27 03:39:00,
2013-02-26 22:54:00,40.4,35.0,29.71,WNW,302,5.0,15.0,80,0.00,,,1.07,0,weatherlink.com 1.10,2013-02-27 03:54:00,
2013-02-26 23:09:00,40.0,35.0,29.71,NW,315,4.0,11.0,81,0.00,,,1.07,0,weatherlink.com 1.10,2013-02-27 04:09:00,
2013-02-26 23:24:00,39.7,35.0,29.72,WNW,302,2.0,11.0,82,0.00,,,1.07,0,weatherlink.com 1.10,2013-02-27 04:24:00,
2013-02-26 23:39:00,39.4,35.0,29.71,WNW,301,6.0,10.0,84,0.00,,,1.07,0,weatherlink.com 1.10,2013-02-27 04:39:00,
2013-02-26 23:54:00,39.3,35.0,29.71,NW,325,5.0,7.0,84,0.00,,,1.07,0,weatherlink.com 1.10,2013-02-27 04:54:00,